Regional Weather Roundup
Issued by NWS Cleveland, OH

Home | Current Version | Previous Version | Graphics & Text | Print | Product List | Glossary On
Versions: 1 2 3 4 5 6 7 8 9 10 11 12 13 14 15 16 17 18 19 20 21 22 23 24 25 26 27 28 29 30 31 32 33 34 35 36 37 38 39 40 41 42 43 44 45 46 47 48 49 50
000
ASUS41 KCLE 311902
RWRCLE
OHIO REGIONAL WEATHER ROUNDUP
NATIONAL WEATHER SERVICE CLEVELAND, OH
300 PM EDT MON AUG 31 2015

NOTE: "FAIR" INDICATES FEW OR NO CLOUDS BELOW 12,000 FEET WITH NO
SIGNIFICANT WEATHER AND/OR OBSTRUCTIONS TO VISIBILITY.

OHZ001>008-015>018-024>027-034-035-043-044-312000-
   NORTHWEST OHIO

CITY           SKY/WX    TMP DP  RH WIND       PRES   REMARKS
DEFIANCE       MOSUNNY   85  68  56 VRB3      30.07F
FINDLAY        MOSUNNY   86  68  54 VRB6      30.08F
TOLEDO EXPRESS MOSUNNY   85  68  56 W14       30.07F
TOLEDO EXEC    MOSUNNY   86  67  52 W9        30.07F
LIMA           MOSUNNY   85  65  51 W8        30.09F
$$

OHZ009>014-019>023-028>033-038-089-312000-
   NORTHEAST OHIO

CITY           SKY/WX    TMP DP  RH WIND       PRES   REMARKS
CLE-HOPKINS    PTSUNNY   84  68  58 NW5       30.10F
CLE-LAKEFRONT  SUNNY     79  70  74 NW5       30.08F
CUY CO. ARPT   SUNNY     81  68  65 NW12      30.10F
LORAIN-ELYRIA  MOSUNNY   83  67  58 NW5       30.09F
ASHTABULA      MOSUNNY   82  70  66 W8        30.09F
AKRON-CANTON   PTSUNNY   86  66  51 SW8       30.10F
WOOSTER        PTSUNNY   82  67  60 SW6       30.10F
MANSFIELD      MOSUNNY   83  65  54 W7        30.11F
YOUNGSTOWN     PTSUNNY   85  65  51 W9        30.09F
$$

OHZ042-051>053-060>062-070>072-077>081-312000-
  SOUTHWEST OHIO

CITY           SKY/WX    TMP DP  RH WIND       PRES   REMARKS
CINC-COVINGTON MOSUNNY   86  64  47 W8        30.11F
CINC-LUNKEN    PTSUNNY   85  66  53 SW6       30.09F
HAMILTON       MOSUNNY   87  68  52 VRB5      30.10F HX  90
DAYTON         MOSUNNY   82  69  64 SW6       30.11F
WRIGHT-PAT AFB NOT AVBL
DAYTON GENERAL MOSUNNY   84  66  54 W9        30.10F
WILMINGTON     MOSUNNY   77  67  71 S9        30.12S
$$

OHZ036-037-039>041-045>050-054>059-063>069-073>076-082>088-312000-
  CENTRAL AND SOUTHEAST OHIO

CITY           SKY/WX    TMP DP  RH WIND       PRES   REMARKS
COLUMBUS       PTSUNNY   83  67  58 NW5       30.08F
OSU AIRPORT    PTSUNNY   86  66  51 SW7       30.09F
BOLTON FIELD   CLOUDY    84  70  61 NW3       30.10F
RICKENBACK AFB NOT AVBL
NEWARK         SUNNY     85  67  54 NW5       30.09F
MARION         MOSUNNY   84  66  54 SW6       30.10F
LANCASTER      SUNNY     85  65  51 CALM      30.09F
ZANESVILLE     MOSUNNY   88  63  43 W7        30.09F
NEW PHILLY     MOSUNNY   87  64  46 VRB5      30.09F
$$



USA.gov is the U.S. government's official web portal to all federal, state and local government web resources and services.